Tracking 19827 objects as of 22-Aug-2019
HD Live streaming from Space Station
objects crossing your sky now

FENGYUN 1C DEB

Track FENGYUN 1C DEB now!
10-day predictions


NORAD ID: 32098
Int'l Code: 1999-025CQQ
Perigee: 698.3 km
Apogee: 993.2 km
Inclination: 98.7 °
Period: 101.7 minutes
Semi major axis: 7216 km
RCS: 0.0108 m2 (small)
Launch date: May 10, 1999
Source: People's Republic of China (PRC)
Launch site: Taiyaun Space Center, China (TSC)

Note: This is SATELLITE DEBRIS
aabbcc
Your satellite tracking list
Your tracking list is empty




NASA's NSSDC Master Catalog

Two Line Element Set (TLE):
1 32098U 99025CQQ 19232.27889282  .00000067  00000-0  47044-4 0  9996
2 32098  98.6811 262.5288 0204337 279.9772  77.8398 14.16090869622390
Source of the keplerian elements: AFSPC